Location: Bothwell
(41.7170°N, 112.2589°W)
Time: 00:25:12
(UTC+00:00)

ARIANE 6 FM1 Upper Stage - Visible Passes

Search period start: 17 April 2026 00:00
Search period end: 27 April 2026 00:00
Orbit: 525 x 604 km, 62.0° (Epoch: 16 April)

Date Brightness Start Highest point End Pass type
(mag) Time Alt. Az. Time Alt. Az. Time Alt. Az.
20 Apr 5.9 07:17:39 10° N 07:17:41 10° N 07:17:41 10° N visible
21 Apr 5.9 07:16:58 10° NNW 07:17:03 10° NNW 07:17:03 10° NNW visible
22 Apr 5.9 07:16:24 10° NNW 07:16:25 10° NNW 07:16:25 10° NNW visible
23 Apr 5.5 05:39:23 10° NNE 05:39:52 10° NNE 05:39:52 10° NNE visible
24 Apr 5.3 05:37:50 10° N 05:39:17 13° NNE 05:39:17 13° NNE visible
25 Apr 5.1 05:36:55 10° N 05:38:43 16° NNE 05:38:43 16° NNE visible
26 Apr 4.8 05:36:10 10° NNW 05:38:11 20° NNE 05:38:11 20° NNE visible
